7 * 24
多渠道服务支持
STARLINK-11661是美国太空探索技术公司(SpaceX)于2025年4月28日发射的星链(Starlink)低轨卫星,隶属于星链全球卫星互联网星座项目。该卫星运行在近地轨道,轨道高度约546-548公里,轨道倾角53.05度,周期约95.6分钟,旨在为全球尤其是偏远地区提供高速低延迟的宽带互联网接入服务,进一步拓展星链星座的覆盖能力与服务规模,目前仍在轨正常工作。
美国
(US)
| 数据来源 | 国际轨道数据 |
| 星历时间: | 2026-09-14T14:27:22+0800 15小时前 查看轨道信息 |
| 半长轴: | 6734.333km |
| 偏心率: | 0.0003067 |
| 轨道倾角: | 43.002° |
| 近地点辐角 | 268.195° |
| 升交点赤经 | 221.435° |
| 平近点角 | 91.857° |
| 近地点: | 354.13km |
| 远地点: | 358.262km |
| 周期: | 91.665分钟 |
| 每日圈数: | 15.709449 |